Location: Kampernieuwstad
(52.5135°N, 5.8742°E)
Time: 10:49:39
(UTC+00:00)

Cosmos 2034 Rocket - Pass Details

Date: 15 May 2026
Orbit: 956 x 1001 km, 82.9° (Epoch: 6 June)

Event Time Altitude Azimuth Distance (km) Brightness Sun altitude
Exits shadow 21:58:34 15° 193° (SSW) 2,405 5.6 -15.6°
Maximum altitude 22:03:58 82° 280° (W) 1,012 4.1 -15.9°
Drops below altitude 10° 22:10:20 10° 9° (N) 2,761 7.3 -16.2°
Sets 22:12:52 0° 11° (N) 3,708 8.1 -16.4°
